Location: Unnamed
(54.5186°N, 36.2255°E)
Time: 21:21:58
(UTC+03:00)

ISS - Pass Details

Date: 20 February 2026
Orbit: 416 x 427 km, 51.6° (Epoch: 6 March)

Event Time Altitude Azimuth Distance (km) Brightness Sun altitude
Exits shadow 06:57:54 - 256° (WSW) 1,605 -1.4 -7.6°
Reaches altitude 10° 06:58:10 10° 255° (WSW) 1,496 -1.5 -7.5°
Maximum altitude 07:01:27 52° 178° (S) 527 -3.2 -7.1°
Drops below altitude 10° 07:04:43 10° 101° (ESE) 1,494 0.9 -6.6°
Sets 07:06:50 0° 97° (E) 2,357 2.8 -6.3°
